QPF
0.00 0.00 0.00 0.00 0.00 0.00 0.00 0.00 0.00 0.00 0.00 0.00 0.00 0.00 0.00 0.00 0.00 0.00 0.00 0.00 0.00 0.01 0.01 0.02 0.03 0.02 0.01 0.01 0.01 0.01 0.01 0.01 0.01 0.01 0.03 0.04 0.04 0.03 0.03 0.03 0.02 0.03 0.03 0.02 0.01 0.01 0.01 0.01 0.02
0.00 0.00 0.00 0.00 0.00 0.00 0.00 0.00 0.00 0.00 0.00 0.00 0.00 0.00 0.00 0.00 0.00 0.00 0.00 0.00 0.00 0.00 0.01 0.02 0.04 0.03 0.01 0.01 0.01 0.01 0.01 0.01 0.01 0.02 0.02 0.03 0.03 0.03 0.03 0.03 0.02 0.02 0.02 0.02 0.01 0.01 0.01 0.01 0.01
0.00 0.00 0.00 0.00 0.00 0.00 0.00 0.00 0.00 0.00 0.00 0.00 0.00 0.00 0.00 0.00 0.00 0.00 0.00 0.00 0.00 0.00 0.00 0.01 0.04 0.04 0.03 0.02 0.01 0.01 0.01 0.01 0.01 0.02 0.01 0.02 0.03 0.03 0.03 0.03 0.02 0.02 0.02 0.02 0.01 0.01 0.00 0.00 0.01
0.00 0.00 0.00 0.00 0.00 0.00 0.00 0.00 0.00 0.00 0.00 0.00 0.00 0.00 0.00 0.00 0.00 0.00 0.00 0.00 0.00 0.00 0.00 0.01 0.03 0.04 0.04 0.03 0.02 0.02 0.01 0.01 0.01 0.01 0.01 0.02 0.02 0.04 0.04 0.03 0.02 0.02 0.02 0.02 0.02 0.01 0.01 0.01 0.00
0.01 0.01 0.01 0.00 0.00 0.00 0.00 0.00 0.00 0.00 0.00 0.00 0.00 0.00 0.00 0.00 0.00 0.00 0.00 0.00 0.00 0.00 0.00 0.01 0.02 0.03 0.04 0.04 0.03 0.02 0.01 0.01 0.01 0.01 0.01 0.03 0.03 0.03 0.03 0.04 0.03 0.03 0.03 0.03 0.02 0.00 0.01 0.01 0.00
0.01 0.01 0.01 0.00 0.00 0.00 0.00 0.00 0.00 0.00 0.00 0.00 0.00 0.00 0.00 0.00 0.00 0.00 0.00 0.00 0.00 0.00 0.00 0.00 0.01 0.03 0.04 0.04 0.04 0.03 0.02 0.02 0.01 0.01 0.01 0.03 0.04 0.03 0.04 0.04 0.04 0.04 0.03 0.04 0.03 0.01 0.01 0.01 0.00
0.01 0.01 0.01 0.01 0.00 0.01 0.01 0.00 0.00 0.00 0.00 0.00 0.00 0.00 0.00 0.01 0.00 0.00 0.00 0.00 0.00 0.00 0.00 0.00 0.01 0.02 0.03 0.04 0.05 0.05 0.03 0.02 0.02 0.02 0.02 0.03 0.04 0.04 0.05 0.06 0.05 0.03 0.03 0.04 0.04 0.01 0.01 0.01 0.01
0.01 0.01 0.01 0.01 0.00 0.01 0.02 0.01 0.00 0.00 0.00 0.00 0.00 0.00 0.00 0.01 0.00 0.01 0.01 0.01 0.01 0.01 0.02 0.02 0.02 0.01 0.02 0.03 0.05 0.08 0.07 0.05 0.04 0.03 0.03 0.02 0.03 0.03 0.03 0.04 0.06 0.04 0.02 0.03 0.03 0.01 0.01 0.00 0.01
0.01 0.01 0.01 0.00 0.00 0.01 0.02 0.02 0.00 0.00 0.00 0.00 0.00 0.00 0.00 0.01 0.01 0.00 0.01 0.01 0.01 0.01 0.03 0.03 0.03 0.02 0.02 0.03 0.04 0.06 0.07 0.09 0.07 0.05 0.04 0.03 0.02 0.03 0.02 0.02 0.04 0.06 0.03 0.02 0.01 0.01 0.01 0.01 0.01
0.01 0.02 0.01 0.00 0.00 0.01 0.02 0.03 0.01 0.00 0.00 0.00 0.00 0.00 0.00 0.00 0.01 0.00 0.00 0.01 0.01 0.01 0.02 0.03 0.03 0.03 0.03 0.03 0.03 0.03 0.04 0.06 0.06 0.05 0.04 0.03 0.03 0.04 0.04 0.03 0.03 0.04 0.03 0.02 0.02 0.01 0.01 0.01 0.01
0.01 0.01 0.01 0.01 0.01 0.01 0.02 0.03 0.01 0.00 0.00 0.00 0.00 0.00 0.00 0.00 0.00 0.01 0.00 0.01 0.01 0.01 0.01 0.02 0.02 0.03 0.03 0.04 0.04 0.04 0.04 0.04 0.06 0.05 0.05 0.04 0.03 0.04 0.05 0.05 0.04 0.03 0.03 0.03 0.02 0.01 0.01 0.01 0.01
0.01 0.01 0.01 0.01 0.01 0.02 0.03 0.02 0.00 0.00 0.00 0.00 0.00 0.00 0.00 0.00 0.00 0.00 0.01 0.01 0.01 0.01 0.01 0.01 0.01 0.02 0.02 0.03 0.05 0.06 0.05 0.05 0.06 0.07 0.05 0.04 0.03 0.02 0.03 0.04 0.04 0.03 0.03 0.03 0.01 0.01 0.00 0.01 0.00
0.01 0.01 0.00 0.01 0.01 0.03 0.03 0.03 0.01 0.00 0.00 0.00 0.00 0.00 0.00 0.00 0.00 0.01 0.01 0.01 0.02 0.01 0.01 0.01 0.02 0.02 0.02 0.03 0.05 0.07 0.07 0.08 0.07 0.07 0.06 0.04 0.02 0.02 0.03 0.05 0.05 0.04 0.04 0.04 0.02 0.01 0.01 0.00 0.00
0.01 0.01 0.01 0.01 0.01 0.02 0.02 0.03 0.01 0.01 0.00 0.00 0.00 0.01 0.00 0.01 0.01 0.01 0.02 0.02 0.02 0.02 0.01 0.01 0.03 0.03 0.02 0.02 0.03 0.05 0.07 0.09 0.10 0.09 0.07 0.05 0.03 0.02 0.03 0.05 0.08 0.06 0.04 0.04 0.04 0.02 0.01 0.00 0.00
0.01 0.01 0.01 0.01 0.01 0.02 0.02 0.02 0.01 0.01 0.00 0.01 0.01 0.02 0.01 0.01 0.01 0.01 0.02 0.03 0.02 0.02 0.01 0.01 0.02 0.03 0.03 0.03 0.02 0.03 0.05 0.07 0.11 0.12 0.10 0.07 0.04 0.03 0.03 0.04 0.07 0.08 0.06 0.05 0.04 0.03 0.02 0.01 0.01
0.01 0.02 0.02 0.01 0.02 0.02 0.02 0.02 0.01 0.00 0.01 0.01 0.01 0.03 0.03 0.02 0.01 0.02 0.02 0.02 0.02 0.02 0.02 0.01 0.02 0.03 0.03 0.03 0.03 0.03 0.05 0.06 0.09 0.12 0.12 0.09 0.06 0.04 0.03 0.03 0.04 0.06 0.07 0.07 0.05 0.04 0.04 0.02 0.02
0.03 0.02 0.01 0.01 0.01 0.02 0.02 0.02 0.01 0.01 0.01 0.01 0.01 0.02 0.03 0.03 0.02 0.02 0.02 0.01 0.01 0.02 0.02 0.02 0.02 0.03 0.03 0.03 0.03 0.03 0.04 0.05 0.06 0.09 0.12 0.10 0.07 0.05 0.03 0.03 0.03 0.05 0.07 0.07 0.07 0.05 0.04 0.02 0.02
0.02 0.02 0.01 0.01 0.01 0.02 0.03 0.03 0.02 0.01 0.02 0.02 0.02 0.02 0.03 0.02 0.02 0.02 0.01 0.01 0.01 0.02 0.02 0.02 0.02 0.03 0.03 0.03 0.03 0.04 0.03 0.04 0.05 0.07 0.10 0.11 0.09 0.07 0.04 0.03 0.03 0.04 0.06 0.07 0.07 0.06 0.04 0.03 0.02
0.01 0.01 0.01 0.01 0.01 0.02 0.04 0.03 0.02 0.02 0.03 0.02 0.02 0.02 0.02 0.02 0.01 0.01 0.01 0.01 0.02 0.02 0.02 0.02 0.02 0.02 0.03 0.04 0.03 0.04 0.03 0.03 0.04 0.06 0.09 0.10 0.11 0.10 0.08 0.04 0.03 0.04 0.05 0.05 0.05 0.04 0.04 0.03 0.03
0.01 0.01 0.01 0.02 0.02 0.02 0.03 0.03 0.03 0.03 0.03 0.02 0.02 0.02 0.02 0.02 0.01 0.01 0.01 0.01 0.01 0.02 0.02 0.02 0.03 0.03 0.03 0.04 0.04 0.03 0.03 0.03 0.03 0.05 0.07 0.10 0.11 0.12 0.11 0.08 0.05 0.05 0.06 0.06 0.04 0.03 0.03 0.04 0.04
0.01 0.01 0.01 0.03 0.02 0.02 0.02 0.03 0.03 0.03 0.03 0.02 0.02 0.02 0.02 0.02 0.02 0.01 0.01 0.01 0.01 0.01 0.02 0.02 0.02 0.03 0.03 0.03 0.04 0.05 0.04 0.03 0.04 0.04 0.05 0.08 0.10 0.11 0.11 0.09 0.08 0.07 0.06 0.06 0.05 0.03 0.02 0.03 0.05
0.02 0.01 0.01 0.03 0.04 0.03 0.03 0.03 0.03 0.03 0.02 0.01 0.01 0.02 0.02 0.02 0.01 0.01 0.01 0.01 0.01 0.01 0.02 0.02 0.02 0.02 0.03 0.03 0.04 0.05 0.06 0.04 0.03 0.04 0.05 0.06 0.07 0.09 0.11 0.09 0.07 0.08 0.08 0.07 0.05 0.04 0.03 0.03 0.04
0.01 0.01 0.02 0.02 0.04 0.03 0.02 0.03 0.02 0.02 0.02 0.01 0.01 0.01 0.01 0.01 0.01 0.01 0.01 0.02 0.02 0.01 0.01 0.02 0.02 0.02 0.02 0.03 0.03 0.04 0.05 0.05 0.04 0.03 0.04 0.05 0.06 0.07 0.09 0.10 0.08 0.08 0.07 0.07 0.07 0.05 0.04 0.03 0.03
0.00 0.01 0.02 0.02 0.03 0.04 0.02 0.01 0.01 0.01 0.01 0.01 0.01 0.01 0.01 0.01 0.01 0.01 0.01 0.01 0.01 0.01 0.02 0.02 0.02 0.03 0.02 0.03 0.03 0.03 0.04 0.04 0.05 0.04 0.04 0.04 0.04 0.05 0.06 0.08 0.09 0.09 0.07 0.06 0.06 0.05 0.05 0.04 0.03
0.01 0.01 0.02 0.02 0.03 0.02 0.01 0.01 0.01 0.01 0.01 0.01 0.01 0.01 0.01 0.01 0.01 0.01 0.01 0.01 0.01 0.01 0.02 0.02 0.02 0.03 0.02 0.02 0.03 0.03 0.03 0.03 0.04 0.04 0.04 0.04 0.04 0.04 0.04 0.05 0.06 0.08 0.08 0.07 0.07 0.06 0.05 0.05 0.03
0.01 0.02 0.02 0.01 0.01 0.01 0.01 0.01 0.02 0.01 0.01 0.01 0.01 0.01 0.01 0.01 0.01 0.01 0.01 0.01 0.02 0.01 0.01 0.02 0.02 0.03 0.03 0.03 0.02 0.03 0.03 0.03 0.03 0.04 0.04 0.03 0.03 0.03 0.04 0.04 0.04 0.05 0.06 0.07 0.08 0.07 0.06 0.05 0.04
0.01 0.01 0.01 0.02 0.01 0.01 0.01 0.01 0.01 0.01 0.01 0.01 0.01 0.01 0.01 0.01 0.01 0.01 0.01 0.01 0.01 0.01 0.01 0.01 0.02 0.02 0.03 0.03 0.03 0.03 0.03 0.03 0.03 0.03 0.03 0.03 0.03 0.03 0.04 0.04 0.04 0.04 0.05 0.05 0.06 0.07 0.06 0.05 0.05
0.00 0.00 0.01 0.02 0.02 0.02 0.02 0.01 0.01 0.01 0.02 0.02 0.01 0.01 0.01 0.01 0.01 0.01 0.01 0.01 0.01 0.01 0.01 0.01 0.01 0.01 0.02 0.02 0.03 0.04 0.04 0.04 0.03 0.03 0.03 0.03 0.03 0.03 0.03 0.04 0.04 0.03 0.04 0.04 0.04 0.05 0.05 0.04 0.04
0.00 0.00 0.01 0.02 0.01 0.01 0.01 0.01 0.02 0.02 0.02 0.02 0.02 0.02 0.01 0.01 0.01 0.01 0.01 0.01 0.01 0.01 0.01 0.01 0.01 0.01 0.01 0.02 0.03 0.04 0.04 0.04 0.04 0.04 0.04 0.04 0.04 0.04 0.04 0.03 0.03 0.03 0.03 0.03 0.04 0.03 0.03 0.04 0.03
0.00 0.00 0.01 0.02 0.02 0.01 0.01 0.02 0.02 0.02 0.02 0.02 0.02 0.02 0.02 0.02 0.01 0.01 0.01 0.01 0.01 0.01 0.01 0.01 0.01 0.01 0.02 0.02 0.03 0.03 0.04 0.04 0.04 0.04 0.04 0.05 0.05 0.04 0.04 0.04 0.04 0.03 0.03 0.02 0.03 0.02 0.02 0.03 0.03
MSLP
1015.50 1016.05 1016.70 1017.32 1017.81 1018.05 1018.00 1017.63 1017.00 1016.20 1015.34 1014.54 1013.87 1013.39 1013.07 1012.90 1012.81 1012.74 1012.67 1012.57 1012.47 1012.41 1012.45 1012.61 1012.91 1013.33 1013.82 1014.32 1014.77 1015.14 1015.41 1015.59 1015.72 1015.84 1015.99 1016.20 1016.45 1016.75 1017.06 1017.35 1017.61 1017.82 1018.01 1018.17 1018.35 1018.54 1018.76 1019.00 1019.23
1015.98 1016.60 1017.26 1017.81 1018.15 1018.19 1017.90 1017.30 1016.47 1015.50 1014.54 1013.68 1013.02 1012.56 1012.30 1012.19 1012.15 1012.14 1012.11 1012.05 1012.00 1012.01 1012.10 1012.33 1012.70 1013.19 1013.74 1014.29 1014.80 1015.22 1015.54 1015.77 1015.95 1016.11 1016.29 1016.51 1016.76 1017.04 1017.31 1017.57 1017.79 1017.98 1018.16 1018.33 1018.53 1018.75 1019.00 1019.26 1019.51
1016.42 1017.06 1017.65 1018.09 1018.26 1018.10 1017.61 1016.82 1015.83 1014.77 1013.76 1012.91 1012.27 1011.87 1011.66 1011.60 1011.61 1011.63 1011.63 1011.61 1011.61 1011.66 1011.82 1012.11 1012.54 1013.07 1013.67 1014.26 1014.80 1015.26 1015.62 1015.89 1016.11 1016.31 1016.52 1016.75 1016.99 1017.25 1017.49 1017.72 1017.91 1018.09 1018.26 1018.45 1018.67 1018.92 1019.21 1019.50 1019.78
1016.75 1017.34 1017.82 1018.11 1018.10 1017.77 1017.12 1016.21 1015.15 1014.07 1013.09 1012.28 1011.72 1011.38 1011.23 1011.20 1011.24 1011.28 1011.30 1011.32 1011.35 1011.45 1011.66 1012.01 1012.48 1013.04 1013.65 1014.25 1014.80 1015.27 1015.64 1015.94 1016.19 1016.42 1016.65 1016.90 1017.15 1017.39 1017.62 1017.83 1018.01 1018.19 1018.37 1018.58 1018.83 1019.12 1019.43 1019.76 1020.07
1016.94 1017.40 1017.74 1017.86 1017.69 1017.22 1016.47 1015.53 1014.48 1013.46 1012.57 1011.87 1011.40 1011.13 1011.04 1011.04 1011.09 1011.14 1011.18 1011.21 1011.28 1011.42 1011.68 1012.05 1012.54 1013.11 1013.70 1014.28 1014.80 1015.25 1015.62 1015.92 1016.20 1016.46 1016.72 1016.98 1017.25 1017.50 1017.74 1017.94 1018.14 1018.33 1018.53 1018.77 1019.05 1019.37 1019.72 1020.06 1020.40
1016.94 1017.24 1017.41 1017.36 1017.06 1016.51 1015.74 1014.83 1013.88 1012.98 1012.23 1011.67 1011.31 1011.13 1011.08 1011.11 1011.16 1011.21 1011.24 1011.29 1011.39 1011.57 1011.85 1012.24 1012.72 1013.27 1013.82 1014.35 1014.81 1015.22 1015.56 1015.86 1016.15 1016.44 1016.73 1017.04 1017.33 1017.62 1017.87 1018.10 1018.31 1018.53 1018.77 1019.04 1019.35 1019.69 1020.06 1020.42 1020.76
1016.76 1016.88 1016.87 1016.68 1016.29 1015.71 1014.98 1014.17 1013.37 1012.65 1012.07 1011.66 1011.41 1011.31 1011.29 1011.33 1011.37 1011.40 1011.44 1011.50 1011.62 1011.82 1012.12 1012.52 1012.99 1013.49 1013.98 1014.44 1014.84 1015.19 1015.50 1015.79 1016.09 1016.41 1016.74 1017.09 1017.43 1017.75 1018.04 1018.30 1018.54 1018.79 1019.06 1019.36 1019.70 1020.06 1020.44 1020.80 1021.13
1016.43 1016.36 1016.19 1015.89 1015.45 1014.89 1014.25 1013.58 1012.95 1012.41 1012.00 1011.73 1011.59 1011.55 1011.55 1011.58 1011.60 1011.62 1011.65 1011.72 1011.86 1012.09 1012.41 1012.80 1013.25 1013.70 1014.14 1014.52 1014.86 1015.16 1015.45 1015.73 1016.05 1016.40 1016.78 1017.17 1017.55 1017.91 1018.23 1018.52 1018.80 1019.08 1019.37 1019.70 1020.06 1020.43 1020.81 1021.16 1021.48
1016.00 1015.77 1015.47 1015.09 1014.63 1014.12 1013.58 1013.05 1012.59 1012.22 1011.96 1011.80 1011.73 1011.72 1011.73 1011.73 1011.74 1011.74 1011.77 1011.85 1012.01 1012.27 1012.60 1013.00 1013.43 1013.85 1014.24 1014.58 1014.88 1015.15 1015.42 1015.71 1016.05 1016.43 1016.85 1017.27 1017.69 1018.07 1018.41 1018.72 1019.02 1019.32 1019.64 1019.99 1020.36 1020.74 1021.11 1021.45 1021.75
1015.52 1015.15 1014.76 1014.34 1013.89 1013.43 1012.98 1012.58 1012.24 1012.00 1011.84 1011.76 1011.73 1011.72 1011.72 1011.70 1011.68 1011.67 1011.70 1011.80 1011.99 1012.27 1012.63 1013.04 1013.46 1013.88 1014.24 1014.57 1014.85 1015.12 1015.40 1015.72 1016.09 1016.50 1016.95 1017.39 1017.82 1018.21 1018.56 1018.87 1019.17 1019.48 1019.81 1020.17 1020.55 1020.94 1021.31 1021.65 1021.94
1015.04 1014.60 1014.15 1013.70 1013.26 1012.84 1012.46 1012.14 1011.88 1011.70 1011.60 1011.54 1011.52 1011.51 1011.48 1011.45 1011.41 1011.40 1011.43 1011.55 1011.75 1012.06 1012.44 1012.87 1013.31 1013.73 1014.11 1014.45 1014.76 1015.06 1015.38 1015.74 1016.14 1016.58 1017.04 1017.50 1017.92 1018.30 1018.63 1018.93 1019.22 1019.53 1019.86 1020.23 1020.62 1021.03 1021.41 1021.76 1022.06
1014.63 1014.13 1013.65 1013.19 1012.76 1012.36 1012.01 1011.71 1011.48 1011.32 1011.22 1011.17 1011.14 1011.11 1011.07 1011.02 1010.98 1010.96 1011.01 1011.13 1011.35 1011.67 1012.06 1012.51 1012.97 1013.42 1013.84 1014.22 1014.58 1014.93 1015.31 1015.72 1016.16 1016.63 1017.11 1017.56 1017.97 1018.32 1018.63 1018.91 1019.18 1019.47 1019.80 1020.18 1020.60 1021.02 1021.43 1021.80 1022.12
1014.32 1013.79 1013.30 1012.83 1012.39 1011.98 1011.62 1011.32 1011.08 1010.90 1010.79 1010.72 1010.68 1010.65 1010.62 1010.57 1010.54 1010.52 1010.56 1010.68 1010.89 1011.19 1011.57 1012.01 1012.48 1012.96 1013.42 1013.85 1014.28 1014.70 1015.15 1015.61 1016.11 1016.60 1017.09 1017.54 1017.94 1018.27 1018.56 1018.81 1019.07 1019.35 1019.69 1020.08 1020.52 1020.97 1021.42 1021.83 1022.19
1014.13 1013.60 1013.10 1012.62 1012.17 1011.74 1011.35 1011.02 1010.75 1010.55 1010.43 1010.37 1010.35 1010.34 1010.33 1010.32 1010.29 1010.28 1010.29 1010.37 1010.53 1010.77 1011.09 1011.49 1011.94 1012.41 1012.89 1013.37 1013.85 1014.35 1014.85 1015.38 1015.92 1016.45 1016.96 1017.42 1017.81 1018.15 1018.43 1018.68 1018.93 1019.23 1019.57 1019.98 1020.44 1020.93 1021.42 1021.88 1022.29
1014.09 1013.56 1013.06 1012.58 1012.11 1011.66 1011.25 1010.89 1010.61 1010.42 1010.32 1010.29 1010.33 1010.39 1010.44 1010.47 1010.46 1010.43 1010.39 1010.39 1010.44 1010.57 1010.78 1011.08 1011.45 1011.87 1012.33 1012.83 1013.34 1013.87 1014.42 1014.99 1015.57 1016.14 1016.67 1017.16 1017.59 1017.95 1018.25 1018.53 1018.81 1019.12 1019.49 1019.92 1020.41 1020.93 1021.46 1021.97 1022.43
1014.21 1013.70 1013.21 1012.74 1012.27 1011.81 1011.39 1011.04 1010.77 1010.63 1010.59 1010.66 1010.80 1010.95 1011.09 1011.18 1011.18 1011.12 1011.00 1010.87 1010.76 1010.71 1010.75 1010.88 1011.12 1011.44 1011.83 1012.28 1012.77 1013.30 1013.87 1014.46 1015.06 1015.66 1016.23 1016.77 1017.25 1017.67 1018.04 1018.37 1018.70 1019.06 1019.45 1019.91 1020.41 1020.96 1021.53 1022.08 1022.58
1014.52 1014.04 1013.59 1013.14 1012.69 1012.25 1011.86 1011.54 1011.34 1011.28 1011.36 1011.55 1011.83 1012.11 1012.36 1012.50 1012.52 1012.40 1012.17 1011.87 1011.56 1011.28 1011.09 1011.01 1011.05 1011.21 1011.47 1011.82 1012.24 1012.72 1013.24 1013.81 1014.41 1015.03 1015.64 1016.24 1016.79 1017.30 1017.76 1018.18 1018.58 1018.99 1019.43 1019.90 1020.43 1020.99 1021.57 1022.14 1022.69
1015.06 1014.64 1014.23 1013.83 1013.43 1013.04 1012.70 1012.45 1012.34 1012.40 1012.61 1012.96 1013.39 1013.81 1014.16 1014.37 1014.38 1014.19 1013.83 1013.35 1012.81 1012.29 1011.84 1011.51 1011.32 1011.27 1011.35 1011.54 1011.83 1012.20 1012.64 1013.14 1013.70 1014.30 1014.93 1015.58 1016.21 1016.82 1017.38 1017.91 1018.40 1018.87 1019.35 1019.85 1020.38 1020.94 1021.52 1022.11 1022.69
1015.86 1015.52 1015.19 1014.86 1014.52 1014.20 1013.93 1013.76 1013.75 1013.92 1014.27 1014.77 1015.33 1015.88 1016.32 1016.57 1016.58 1016.32 1015.83 1015.17 1014.42 1013.65 1012.95 1012.37 1011.94 1011.67 1011.54 1011.54 1011.65 1011.85 1012.14 1012.52 1012.99 1013.54 1014.16 1014.83 1015.53 1016.22 1016.89 1017.51 1018.09 1018.64 1019.16 1019.67 1020.20 1020.75 1021.33 1021.92 1022.51
1016.95 1016.71 1016.48 1016.22 1015.96 1015.70 1015.49 1015.39 1015.46 1015.71 1016.16 1016.76 1017.43 1018.07 1018.57 1018.85 1018.84 1018.52 1017.93 1017.13 1016.21 1015.25 1014.34 1013.55 1012.90 1012.42 1012.08 1011.87 1011.76 1011.76 1011.86 1012.07 1012.39 1012.83 1013.39 1014.04 1014.76 1015.51 1016.26 1016.97 1017.63 1018.23 1018.79 1019.32 1019.84 1020.38 1020.94 1021.53 1022.14
1018.31 1018.19 1018.06 1017.89 1017.68 1017.47 1017.29 1017.22 1017.31 1017.60 1018.08 1018.71 1019.42 1020.09 1020.62 1020.90 1020.88 1020.53 1019.88 1019.00 1017.97 1016.90 1015.87 1014.94 1014.14 1013.48 1012.96 1012.55 1012.23 1012.00 1011.87 1011.86 1011.99 1012.27 1012.70 1013.28 1013.97 1014.73 1015.52 1016.28 1017.00 1017.65 1018.24 1018.78 1019.30 1019.83 1020.38 1020.97 1021.58
1019.87 1019.88 1019.85 1019.75 1019.59 1019.38 1019.19 1019.09 1019.13 1019.37 1019.81 1020.40 1021.07 1021.72 1022.23 1022.50 1022.47 1022.11 1021.46 1020.57 1019.54 1018.46 1017.39 1016.41 1015.54 1014.78 1014.12 1013.54 1013.02 1012.57 1012.20 1011.94 1011.84 1011.91 1012.17 1012.61 1013.21 1013.93 1014.70 1015.48 1016.23 1016.91 1017.53 1018.09 1018.62 1019.14 1019.68 1020.26 1020.88
1021.52 1021.65 1021.70 1021.66 1021.50 1021.27 1021.02 1020.83 1020.78 1020.91 1021.23 1021.71 1022.28 1022.85 1023.30 1023.54 1023.51 1023.17 1022.57 1021.75 1020.79 1019.77 1018.77 1017.83 1016.97 1016.19 1015.45 1014.75 1014.07 1013.42 1012.82 1012.31 1011.95 1011.78 1011.83 1012.09 1012.55 1013.17 1013.89 1014.64 1015.39 1016.09 1016.72 1017.31 1017.85 1018.38 1018.93 1019.51 1020.13
1023.09 1023.32 1023.45 1023.43 1023.26 1022.98 1022.65 1022.34 1022.15 1022.13 1022.29 1022.62 1023.05 1023.50 1023.86 1024.06 1024.02 1023.72 1023.20 1022.48 1021.65 1020.78 1019.91 1019.08 1018.30 1017.55 1016.81 1016.04 1015.25 1014.43 1013.63 1012.90 1012.30 1011.88 1011.69 1011.74 1012.03 1012.51 1013.12 1013.82 1014.54 1015.24 1015.90 1016.50 1017.07 1017.62 1018.18 1018.76 1019.38
1024.43 1024.73 1024.90 1024.89 1024.70 1024.37 1023.96 1023.55 1023.22 1023.04 1023.04 1023.20 1023.48 1023.79 1024.05 1024.18 1024.13 1023.88 1023.43 1022.84 1022.16 1021.45 1020.74 1020.06 1019.41 1018.74 1018.03 1017.26 1016.40 1015.48 1014.53 1013.60 1012.79 1012.14 1011.72 1011.56 1011.65 1011.96 1012.45 1013.07 1013.74 1014.42 1015.09 1015.72 1016.32 1016.90 1017.47 1018.06 1018.67
1025.39 1025.74 1025.93 1025.93 1025.73 1025.37 1024.91 1024.43 1024.01 1023.72 1023.58 1023.60 1023.73 1023.92 1024.07 1024.13 1024.04 1023.80 1023.42 1022.93 1022.38 1021.81 1021.26 1020.73 1020.20 1019.64 1019.00 1018.25 1017.39 1016.41 1015.36 1014.30 1013.32 1012.49 1011.87 1011.50 1011.39 1011.53 1011.88 1012.39 1012.99 1013.65 1014.32 1014.97 1015.60 1016.21 1016.81 1017.40 1018.01
1025.92 1026.28 1026.48 1026.49 1026.31 1025.96 1025.51 1025.02 1024.58 1024.25 1024.05 1023.99 1024.01 1024.08 1024.13 1024.10 1023.96 1023.69 1023.32 1022.87 1022.40 1021.93 1021.49 1021.07 1020.65 1020.18 1019.61 1018.92 1018.08 1017.09 1016.01 1014.89 1013.80 1012.83 1012.04 1011.50 1011.21 1011.18 1011.38 1011.77 1012.29 1012.90 1013.55 1014.22 1014.88 1015.52 1016.14 1016.75 1017.34
1026.03 1026.38 1026.58 1026.62 1026.48 1026.20 1025.82 1025.41 1025.04 1024.75 1024.57 1024.48 1024.45 1024.43 1024.38 1024.25 1024.01 1023.67 1023.25 1022.78 1022.31 1021.87 1021.47 1021.10 1020.74 1020.34 1019.84 1019.21 1018.42 1017.47 1016.40 1015.26 1014.13 1013.08 1012.18 1011.49 1011.05 1010.86 1010.90 1011.16 1011.58 1012.13 1012.75 1013.41 1014.09 1014.75 1015.40 1016.03 1016.62
1025.87 1026.17 1026.37 1026.43 1026.36 1026.19 1025.95 1025.69 1025.47 1025.30 1025.19 1025.14 1025.10 1025.03 1024.89 1024.65 1024.29 1023.82 1023.29 1022.73 1022.19 1021.69 1021.26 1020.89 1020.53 1020.16 1019.70 1019.13 1018.40 1017.52 1016.50 1015.39 1014.26 1013.18 1012.22 1011.43 1010.85 1010.51 1010.41 1010.52 1010.83 1011.28 1011.84 1012.48 1013.16 1013.85 1014.53 1015.17 1015.79
1025.64 1025.88 1026.05 1026.14 1026.15 1026.10 1026.03 1025.96 1025.92 1025.91 1025.93 1025.95 1025.93 1025.82 1025.59 1025.23 1024.72 1024.11 1023.42 1022.72 1022.06 1021.46 1020.94 1020.50 1020.12 1019.73 1019.29 1018.76 1018.09 1017.28 1016.33 1015.29 1014.20 1013.12 1012.13 1011.27 1010.58 1010.11 1009.85 1009.82 1009.99 1010.33 1010.82 1011.41 1012.08 1012.78 1013.48 1014.16 1014.81
Thickness
5694 5696 5696 5688 5670 5655 5656 5667 5679 5685 5689 5694 5696 5694 5690 5686 5685 5681 5686 5691 5693 5693 5693 5694 5694 5695 5695 5696 5696 5696 5696 5696 5697 5697 5697 5697 5696 5696 5696 5696 5696 5696 5696 5696 5696 5696 5696 5696 5696
5689 5689 5683 5671 5654 5644 5652 5665 5673 5682 5689 5691 5690 5688 5683 5680 5682 5681 5682 5685 5688 5688 5689 5689 5690 5690 5691 5691 5691 5692 5692 5692 5692 5692 5693 5692 5692 5692 5691 5691 5691 5691 5692 5691 5691 5692 5692 5692 5691
5683 5682 5668 5655 5646 5647 5656 5666 5672 5680 5685 5685 5679 5677 5676 5675 5675 5676 5679 5681 5682 5683 5683 5684 5685 5685 5686 5686 5687 5687 5687 5687 5687 5687 5688 5688 5687 5687 5687 5686 5686 5686 5687 5687 5686 5687 5687 5687 5687
5674 5665 5655 5644 5646 5653 5660 5667 5669 5672 5676 5676 5672 5665 5665 5668 5668 5671 5674 5675 5676 5676 5677 5678 5679 5679 5680 5681 5681 5682 5682 5681 5682 5682 5682 5682 5682 5682 5681 5681 5681 5681 5681 5682 5682 5682 5682 5682 5682
5662 5650 5639 5633 5642 5650 5656 5661 5663 5663 5664 5666 5664 5657 5655 5659 5663 5665 5667 5668 5669 5669 5671 5672 5673 5673 5674 5675 5675 5676 5677 5676 5676 5676 5676 5677 5676 5676 5676 5676 5676 5676 5676 5676 5677 5677 5677 5677 5677
5645 5637 5626 5628 5638 5645 5649 5654 5654 5653 5654 5656 5654 5649 5647 5650 5653 5656 5658 5660 5661 5662 5663 5664 5666 5667 5668 5668 5669 5670 5670 5671 5671 5670 5670 5671 5671 5671 5670 5670 5671 5671 5671 5671 5671 5671 5671 5672 5672
5634 5625 5622 5626 5630 5635 5642 5645 5643 5642 5642 5643 5645 5638 5637 5640 5643 5646 5648 5650 5651 5653 5655 5656 5658 5659 5661 5662 5662 5663 5664 5664 5665 5664 5664 5664 5664 5665 5664 5664 5665 5665 5665 5665 5665 5666 5666 5666 5666
5631 5620 5618 5619 5623 5628 5634 5635 5636 5634 5633 5635 5635 5628 5627 5631 5634 5636 5638 5640 5642 5643 5645 5647 5649 5651 5653 5654 5655 5656 5656 5657 5657 5657 5657 5657 5658 5658 5658 5658 5658 5658 5658 5659 5659 5660 5660 5660 5660
5625 5608 5609 5615 5618 5622 5625 5623 5625 5626 5624 5622 5621 5622 5624 5625 5625 5625 5626 5628 5630 5633 5635 5637 5639 5642 5644 5645 5646 5647 5648 5649 5649 5649 5649 5650 5651 5651 5651 5651 5652 5651 5652 5652 5652 5653 5653 5653 5653
5609 5600 5610 5613 5614 5613 5614 5613 5613 5613 5610 5608 5607 5608 5612 5614 5615 5616 5616 5617 5619 5622 5624 5627 5630 5632 5634 5636 5637 5638 5639 5640 5641 5641 5642 5643 5643 5643 5643 5644 5645 5645 5645 5646 5646 5646 5646 5647 5647
5600 5596 5602 5602 5603 5602 5601 5600 5602 5600 5595 5595 5596 5597 5599 5602 5603 5605 5606 5608 5610 5612 5614 5617 5619 5622 5624 5626 5628 5628 5630 5631 5632 5632 5633 5634 5635 5635 5636 5636 5637 5637 5638 5638 5639 5639 5639 5640 5640
5588 5590 5590 5590 5591 5589 5587 5587 5584 5584 5584 5588 5589 5588 5588 5590 5592 5594 5596 5597 5599 5601 5604 5607 5610 5612 5614 5616 5617 5619 5620 5621 5622 5623 5624 5625 5626 5627 5627 5628 5629 5630 5630 5631 5632 5632 5632 5632 5633
5577 5577 5577 5575 5575 5575 5574 5571 5569 5569 5573 5576 5577 5576 5576 5579 5581 5583 5586 5587 5589 5590 5593 5596 5599 5602 5604 5605 5607 5608 5609 5611 5612 5614 5615 5616 5617 5618 5619 5620 5621 5622 5623 5624 5624 5625 5625 5625 5625
5566 5563 5562 5562 5563 5563 5561 5558 5557 5559 5561 5562 5562 5562 5563 5566 5569 5570 5573 5575 5578 5580 5584 5585 5588 5590 5592 5594 5596 5597 5598 5600 5602 5603 5604 5606 5608 5609 5610 5611 5613 5614 5615 5616 5616 5616 5617 5617 5618
5553 5548 5548 5550 5551 5549 5547 5544 5546 5549 5548 5548 5549 5550 5551 5554 5556 5559 5562 5565 5567 5571 5573 5575 5577 5579 5581 5583 5584 5586 5587 5589 5591 5592 5594 5597 5599 5600 5602 5603 5604 5605 5606 5608 5608 5607 5608 5608 5609
5538 5531 5530 5538 5537 5535 5531 5533 5537 5536 5535 5535 5536 5537 5538 5541 5545 5548 5551 5554 5557 5560 5562 5564 5567 5568 5570 5572 5574 5576 5577 5579 5580 5582 5584 5586 5588 5590 5592 5593 5594 5595 5597 5599 5600 5599 5600 5599 5600
5515 5514 5518 5523 5524 5521 5517 5518 5522 5522 5523 5523 5524 5525 5526 5529 5533 5537 5540 5543 5547 5549 5551 5553 5556 5558 5559 5561 5563 5565 5567 5568 5570 5572 5574 5576 5578 5580 5582 5584 5584 5586 5588 5590 5592 5591 5591 5590 5590
5502 5500 5506 5507 5509 5505 5500 5503 5506 5507 5508 5508 5510 5512 5514 5517 5521 5524 5528 5532 5535 5537 5540 5542 5545 5546 5548 5550 5551 5553 5554 5557 5559 5561 5563 5565 5567 5570 5572 5573 5574 5576 5578 5580 5582 5582 5582 5582 5581
5492 5492 5491 5494 5495 5490 5487 5490 5494 5494 5493 5494 5495 5497 5500 5504 5507 5511 5516 5520 5522 5524 5526 5529 5532 5534 5536 5538 5540 5541 5542 5545 5548 5550 5553 5555 5557 5559 5562 5563 5565 5567 5569 5570 5571 5572 5572 5572 5572
5483 5479 5476 5480 5480 5478 5473 5476 5482 5482 5483 5483 5483 5484 5487 5490 5493 5498 5501 5505 5508 5511 5514 5517 5519 5523 5526 5528 5530 5531 5531 5533 5536 5538 5540 5543 5546 5548 5551 5553 5555 5558 5559 5560 5561 5562 5562 5561 5563
5473 5467 5466 5465 5464 5463 5461 5465 5469 5470 5470 5471 5471 5472 5473 5476 5479 5483 5487 5490 5494 5498 5501 5505 5507 5510 5513 5515 5516 5518 5518 5519 5521 5525 5528 5531 5534 5537 5539 5541 5544 5547 5549 5550 5551 5553 5554 5554 5552
5459 5460 5460 5458 5450 5444 5448 5445 5457 5456 5457 5457 5456 5456 5458 5460 5464 5468 5472 5475 5479 5484 5488 5491 5494 5497 5499 5501 5503 5506 5508 5508 5510 5513 5516 5518 5521 5524 5527 5529 5532 5535 5538 5539 5541 5542 5543 5545 5544
5444 5448 5446 5446 5438 5429 5430 5426 5440 5441 5443 5445 5443 5443 5446 5448 5451 5454 5458 5462 5466 5470 5474 5477 5480 5483 5485 5488 5490 5493 5495 5497 5498 5500 5502 5505 5508 5511 5514 5517 5520 5523 5525 5528 5529 5531 5532 5534 5535
5433 5432 5429 5421 5416 5414 5420 5416 5425 5425 5431 5434 5431 5431 5433 5436 5439 5442 5445 5448 5452 5456 5459 5462 5465 5469 5471 5473 5476 5479 5482 5483 5485 5487 5489 5492 5495 5498 5501 5505 5508 5510 5513 5516 5518 5519 5520 5523 5523
5417 5409 5400 5397 5391 5402 5411 5407 5412 5417 5419 5419 5418 5418 5420 5422 5425 5427 5431 5434 5438 5441 5445 5447 5451 5454 5457 5459 5462 5465 5468 5470 5473 5475 5477 5480 5482 5486 5489 5493 5496 5498 5501 5504 5505 5506 5508 5510 5512
5400 5397 5388 5384 5383 5390 5395 5396 5403 5405 5406 5406 5404 5404 5406 5409 5411 5413 5416 5419 5423 5426 5429 5433 5436 5439 5442 5445 5448 5452 5454 5457 5460 5462 5465 5468 5471 5474 5477 5480 5484 5486 5489 5492 5492 5494 5496 5497 5499
5391 5382 5382 5370 5363 5363 5378 5381 5390 5397 5395 5393 5392 5393 5393 5395 5398 5400 5403 5405 5408 5411 5415 5418 5421 5425 5428 5431 5434 5437 5440 5443 5446 5448 5452 5455 5459 5462 5464 5468 5471 5474 5476 5478 5480 5482 5483 5484 5485
5383 5375 5362 5359 5358 5361 5368 5367 5381 5385 5384 5383 5381 5379 5380 5382 5384 5386 5389 5391 5394 5397 5401 5404 5407 5411 5414 5417 5420 5424 5426 5429 5432 5435 5438 5442 5446 5449 5452 5455 5458 5461 5463 5465 5467 5469 5470 5471 5472
5367 5363 5355 5346 5345 5349 5350 5370 5378 5376 5373 5370 5369 5367 5366 5368 5370 5373 5375 5377 5380 5383 5387 5390 5393 5397 5400 5404 5407 5410 5413 5416 5418 5421 5425 5429 5433 5436 5439 5443 5446 5449 5451 5452 5454 5456 5458 5458 5459
5357 5353 5345 5342 5336 5330 5333 5357 5367 5359 5358 5356 5354 5354 5354 5354 5357 5360 5362 5364 5367 5370 5373 5376 5379 5382 5386 5390 5394 5397 5400 5403 5405 5409 5412 5415 5419 5424 5427 5431 5434 5437 5439 5440 5441 5443 5445 5446 5446